Weather History for Sioux City, IA

Change the Weather History Date:

Saturday, February 2, 2013

  Actual Average Record
Temperature  
Mean Temperature 30 °F 22 °F  
Max Temperature 40 °F 32 °F 65 °F (1992)
Min Temperature 19 °F 12 °F -30 °F (1905)
Degree Days  
Heating Degree Days 35 43  
Month to date heating degree days 88 86  
Since 1 July heating degree days 4140 4262  
Cooling Degree Days 0 0  
Month to date cooling degree days 0 0  
Year to date cooling degree days 0 0  
Moisture  
Dew Point 20 °F    
Average Humidity 78    
Maximum Humidity 92    
Minimum Humidity 64    
Precipitation  
Precipitation 0.02 in 0.02 in 0.67 in (1919)
Month to date precipitation 0.02 0.04  
Year to date precipitation 0.21 0.66  
Snow  
Snow 0.20 in 0.30 in 3.00 in (1976)
Month to date snowfall 0.2 0.5  
Since 1 July snowfall 11.6 20.4  
Snow Depth T in    
Sea Level Pressure  
Sea Level Pressure 30.13 in    
Wind  
Wind Speed 11 mph (NW)    
Max Wind Speed 33 mph    
Max Gust Speed 44 mph    
Visibility 9 miles    
Events Snow    
T = Trace of Precipitation, MM = Missing Value Source: NWS Daily Summary

Daily Weather History Graph

Daily Weather History Graph

Search for Another Location

Airport:

Trip Planner

Search our weather history database for the weather conditions in past years. The results will help you decide how hot, cold, wet, or windy it might be!

Date:

Astronomy

Feb. 02, 2013 Rise Set
Actual Time 7:37 AM CST 5:41 PM CST
Civil Twilight 7:08 AM CST 6:10 PM CST
Nautical Twilight 6:34 AM CST 6:44 PM CST
Astronomical Twilight 6:01 AM CST 7:17 PM CST
Moon No Moon Rise 10:39 AM CST (2/2)
Length of Visible Light 11h 02m
Length of Day
10h 03m
Waning Gibbous, 59% of the Moon is Illuminated
Feb 2
Waning Gibbous
Feb 3
Last Quarter
Feb 10
New
Feb 17
First Quarter
Feb 25
Full

Hourly Weather History & Observations

Time (CST) Temp. Windchill Dew Point Humidity Pressure Visibility Wind Dir Wind Speed Gust Speed Precip Events Conditions
12:52 AM 24.1 °F 13.7 °F 16.0 °F 71% 30.13 in 10.0 mi NW 10.4 mph - N/A   Mostly Cloudy
1:52 AM 23.0 °F 10.1 °F 15.1 °F 72% 30.14 in 10.0 mi NNW 15.0 mph - N/A   Overcast
2:52 AM 21.9 °F 9.2 °F 15.1 °F 75% 30.16 in 10.0 mi NNW 13.8 mph - N/A   Overcast
3:52 AM 21.0 °F 8.1 °F 14.0 °F 74% 30.16 in 10.0 mi North 13.8 mph - N/A   Mostly Cloudy
4:52 AM 21.0 °F 9.3 °F 15.1 °F 78% 30.19 in 8.0 mi NNW 11.5 mph - N/A   Overcast
5:52 AM 19.9 °F 7.9 °F 16.0 °F 85% 30.21 in 8.0 mi NNW 11.5 mph - N/A   Overcast
6:52 AM 19.9 °F 10.1 °F 16.0 °F 85% 30.22 in 10.0 mi NNW 8.1 mph - N/A   Overcast
7:01 AM 19.4 °F 11.5 °F 15.8 °F 86% 30.17 in 10.0 mi NNW 5.8 mph - N/A   Overcast
7:08 AM 19.4 °F 10.4 °F 15.8 °F 86% 30.17 in 10.0 mi NNW 6.9 mph - N/A   Overcast
7:52 AM 19.9 °F 13.4 °F 15.1 °F 81% 30.22 in 10.0 mi North 4.6 mph - N/A   Overcast
7:59 AM 19.4 °F 12.8 °F 15.8 °F 86% 30.17 in 10.0 mi NNE 4.6 mph - N/A   Overcast
8:52 AM 19.9 °F - 14.0 °F 78% 30.23 in 10.0 mi Calm Calm - N/A   Overcast
9:52 AM 19.9 °F - 14.0 °F 78% 30.22 in 10.0 mi Calm Calm - N/A   Overcast
10:52 AM 21.9 °F 15.7 °F 16.0 °F 78% 30.23 in 10.0 mi South 4.6 mph - N/A   Overcast
11:36 AM 23.0 °F 15.8 °F 17.6 °F 80% 30.16 in 10.0 mi South 5.8 mph - 0.00 in   Overcast
12:52 PM 26.1 °F 17.6 °F 17.1 °F 69% 30.17 in 10.0 mi SSW 8.1 mph - N/A   Overcast
1:00 PM 26.6 °F 20.0 °F 17.6 °F 69% 30.12 in 10.0 mi SSW 5.8 mph - N/A   Overcast
1:52 PM 26.6 °F 18.2 °F 19.4 °F 74% 30.10 in 10.0 mi South 8.1 mph - N/A   Overcast
2:52 PM 28.9 °F 19.8 °F 21.0 °F 72% 30.11 in 10.0 mi SSW 10.4 mph - N/A   Overcast
3:13 PM 30.2 °F 20.2 °F 21.2 °F 69% 30.05 in 10.0 mi South 12.7 mph - N/A   Overcast
3:52 PM 30.9 °F 24.3 °F 23.0 °F 72% 30.07 in 2.5 mi SSE 6.9 mph - 0.00 in Snow Light Snow
4:10 PM 30.2 °F 24.3 °F 23.0 °F 75% 30.03 in 2.5 mi SSE 5.8 mph - 0.00 in Snow Light Snow
4:52 PM 28.9 °F 23.9 °F 27.0 °F 92% 30.08 in 2.5 mi ESE 4.6 mph - 0.02 in Snow Light Snow
5:03 PM 28.4 °F 23.3 °F 26.6 °F 93% 30.02 in 4.0 mi ESE 4.6 mph - 0.00 in Snow Light Snow
5:24 PM 30.2 °F 26.7 °F 28.4 °F 93% 30.02 in 8.0 mi SE 3.5 mph - 0.00 in Snow Light Snow
5:52 PM 30.0 °F 26.5 °F 28.9 °F 96% 30.08 in 9.0 mi East 3.5 mph - 0.00 in   Overcast
6:02 PM 30.2 °F 26.7 °F 28.4 °F 93% 30.03 in 9.0 mi ESE 3.5 mph - 0.00 in   Overcast
6:14 PM 30.2 °F - 28.4 °F 93% 30.03 in 8.0 mi Calm Calm - 0.00 in   Overcast
6:52 PM 37.0 °F 28.5 °F 30.9 °F 79% 30.06 in 10.0 mi WNW 13.8 mph - 0.00 in   Mostly Cloudy
7:52 PM 39.0 °F 29.9 °F 28.9 °F 67% 30.06 in 10.0 mi NW 17.3 mph 28.8 mph N/A   Overcast
8:52 PM 37.9 °F 26.6 °F 28.0 °F 68% 30.06 in 10.0 mi NW 25.3 mph 35.7 mph N/A   Overcast
9:52 PM 32.0 °F 18.4 °F 24.1 °F 73% 30.12 in 9.0 mi NNW 26.5 mph 42.6 mph 0.00 in   Mostly Cloudy
10:52 PM 28.0 °F 14.9 °F 21.0 °F 75% 30.14 in 10.0 mi NNW 19.6 mph 29.9 mph N/A   Clear
11:52 PM 26.1 °F 14.0 °F 19.9 °F 78% 30.17 in 10.0 mi NNW 15.0 mph - N/A   Partly Cloudy